Simultaneous Nadir Overpasses (SNOs) Predictions

Prediction of SNOs between NOAA-21 and LANDSAT-9 Satellite Orbit:

Table of predicted SNOs for the next 14.0 days since TLE Epoch: 6/8/2024
Index Date (NOAA-21) Time (NOAA-21) Lat,Lon (NOAA-21) SZA (NOAA-21 ) Date (LANDSAT-9) Time (LANDSAT-9) Lat,Lon (LANDSAT-9) SZA (LANDSAT-9 ) Distance(km) Time Diff (sec)
1 06/09/2024 14:27:41 -70.20, 139.04 132.86 06/09/2024 14:28:52 -70.20, 139.11 132.86 2.64 71
2 06/09/2024 15:18:25 70.06, -53.44 47.00 06/09/2024 15:18:20 70.05, -53.47 46.99 1.90 5
3 06/09/2024 16:09:04 -69.83, 114.23 133.25 06/09/2024 16:07:51 -69.88, 113.93 133.19 12.58 73
4 06/12/2024 06:44:39 -70.14,-105.11 133.10 06/12/2024 06:45:20 -70.13,-105.12 133.12 1.28 41
5 06/12/2024 07:35:23 70.01, 62.41 46.76 06/12/2024 07:34:47 70.03, 62.38 46.79 2.28 36
6 06/14/2024 22:11:01 70.54,-157.30 47.20 06/14/2024 22:12:12 70.40,-156.47 47.02 34.49 71
7 06/14/2024 23:01:36 -70.09, 10.73 133.28 06/14/2024 23:01:45 -70.12, 10.76 133.25 3.16 9
8 06/14/2024 23:52:20 69.96, 178.23 46.59 06/14/2024 23:51:13 69.96, 178.17 46.59 2.40 67
9 06/17/2024 14:27:53 70.20, -40.99 46.76 06/17/2024 14:28:41 70.18, -40.90 46.73 3.66 48
10 06/17/2024 15:18:34 -70.06, 126.54 133.39 06/17/2024 15:18:11 -70.07, 126.57 133.38 1.29 23
11 06/20/2024 05:54:20 -70.98, -93.80 132.45 06/20/2024 05:55:27 -70.90, -91.58 132.61 80.84 67
12 06/20/2024 06:44:50 70.13, 74.89 46.65 06/20/2024 06:45:06 70.13, 74.92 46.65 1.55 16
13 06/20/2024 07:35:32 -70.04,-117.66 133.44 06/20/2024 07:34:36 -70.02,-117.60 133.46 2.96 56



Historial Predications of SNOs between NOAA-21 and LANDSAT-9
